Flag for Canada Weather past 2 weeks in Kitchener, Ontario, Canada

Now
55 °F

Fog.


Feels Like: 55 °F
Forecast: 54 / 67 °F
Wind: 3 mph from Northeast

Location: Waterloo Well

Current Time: Jun 30, 2015 at 4:43:44 AM

Latest Report: Jun 30, 2015 at 4:04 AM


Visibility: 3 mi

Pressure: 29.85 "Hg

Humidity: 100%

Dew point: 55 °F

Location of KitchenerLocation

Historic Weather in Kitchener — Graph

°F

Kitchener temperature yesterday

Maximum temperature yesterday: 77 °F (at 4:51 PM)
Minimum temperature yesterday: 54 °F (at 5:00 AM)
Average temperature yesterday: 65 °F

Past Weeks' High & Low Weather Summary

 TemperatureHumidityPressure
High82 °F (Jun 15, 3:00 PM)100% (Jun 15, 3:00 AM)30.18 "Hg (Jun 15, 3:00 AM)
Low46 °F (Jun 20, 4:00 AM)37% (Jun 25, 3:00 PM)29.66 "Hg (Jun 23, 5:00 AM)
Average64 °F78%29.94 "Hg
* Reported Jun 15 3:00 AM — Jun 30 3:00 AM, Kitchener, Weather by CustomWeather, © 2015

Note: Actual official high and low records may vary slightly from our data, if they occured in-between our weather recording intervals... More about our weather records

Advertising

Kitchener weather history for previous 24 hours

 ConditionsComfort  
Time TempWeatherWind HumidityBarometerVisibility
3:00 AM
Tue, Jun 30
54 °FFog.2 mph94%29.86 "Hg1 mi
2:48 AM52 °FFog.3 mph100%29.86 "Hg1 mi
2:00 AM55 °FFog.No wind94%29.87 "Hg1 mi
1:48 AM54 °FFog.No wind94%29.87 "Hg1 mi
1:02 AM54 °FFog.2 mph100%29.88 "Hg1 mi
12:04 AM55 °FFog.No wind100%29.90 "Hg6 mi
11:55 PM
Mon, Jun 29
55 °FFog.2 mph94%29.90 "Hg5 mi
11:00 PM57 °FPassing clouds.No wind94%29.90 "Hg9 mi
10:00 PM64 °FPartly sunny.2 mph78%29.89 "Hg5 mi
9:57 PM64 °FPartly sunny.2 mph73%29.90 "Hg5 mi
9:00 PM66 °FSunny.9 mph73%29.88 "Hg9 mi
8:00 PM70 °FSunny.9 mph69%29.86 "Hg9 mi
7:00 PM72 °FPartly sunny.10 mph65%29.86 "Hg9 mi
6:00 PM73 °FThunderstorms. Broken clouds.13 mph57%29.87 "Hg9 mi
5:00 PM75 °FThunderstorms. Mostly cloudy.10 mph57%29.85 "Hg9 mi
4:51 PM77 °FThunderstorms. Cloudy.10 mph54%29.85 "Hg9 mi
4:00 PM75 °FOvercast.9 mph50%29.86 "Hg9 mi
3:00 PM75 °FOvercast.8 mph57%29.88 "Hg9 mi
2:00 PM75 °FBroken clouds.10 mph57%29.88 "Hg9 mi
1:00 PM73 °FScattered clouds.5 mph57%29.89 "Hg9 mi
12:00 PM72 °FSunny.5 mph61%29.90 "Hg9 mi
11:00 AM72 °FSunny.2 mph61%29.89 "Hg9 mi
10:00 AM68 °FSunny.No wind64%29.90 "Hg9 mi
9:00 AM64 °FSunny.3 mph78%29.90 "Hg9 mi
8:00 AM61 °FSunny.2 mph83%29.89 "Hg9 mi
7:00 AM54 °FPassing clouds.5 mph100%29.88 "Hg9 mi
6:00 AM54 °FPartly cloudy.3 mph94%29.87 "Hg9 mi
5:00 AM54 °FPassing clouds.5 mph94%29.88 "Hg9 mi
4:00 AM55 °FMostly cloudy.3 mph94%29.87 "Hg9 mi
Weather by CustomWeather, © 2015

See weather overviewHow to use our weather pages